Temperature
18 18 17 17 17 17 17 17 17 16 16 16 16 15 15 15 15 15 15 14 14 14 14 14 14 14 14 14 13 13 13 13 13 14 14 14 14 14 14 13 13 13 13
18 18 18 17 17 17 17 17 17 16 16 16 16 16 15 15 15 15 15 14 14 14 14 14 14 14 14 14 13 13 13 13 13 13 13 13 13 13 13 13 13 13 13
18 18 18 17 17 17 17 17 17 17 16 16 16 16 16 15 15 15 15 14 14 14 14 14 14 14 14 13 13 13 13 13 13 13 13 13 13 13 13 13 13 13 13
18 18 18 18 18 17 17 17 16 16 16 16 16 16 16 15 15 15 15 15 14 14 14 14 14 14 14 13 13 13 13 13 13 13 13 13 13 13 13 13 13 13 13
19 19 18 18 18 17 17 17 17 16 16 16 16 16 16 16 15 15 15 15 15 15 14 14 14 14 14 14 13 13 13 13 13 13 13 13 13 13 13 13 13 13 13
20 19 19 18 18 18 17 17 17 17 16 16 16 16 16 16 16 15 15 15 15 15 14 14 14 14 14 14 14 14 13 13 13 13 12 12 13 13 13 12 12 12 12
20 19 19 18 18 18 17 17 17 17 17 16 16 16 16 16 16 16 15 15 15 15 15 15 14 14 14 14 14 13 13 13 13 13 12 13 13 13 12 12 12 12 12
19 19 19 18 18 17 17 17 17 17 16 16 16 16 16 16 16 16 15 15 15 15 15 15 14 14 14 14 13 13 13 13 13 12 12 13 13 12 12 12 11 11 11
19 19 18 18 18 17 17 17 17 16 16 16 16 16 16 16 15 15 15 15 15 15 14 14 14 14 14 14 13 13 13 13 13 12 12 12 12 12 12 11 11 11 11
19 18 18 18 17 17 17 17 16 16 16 16 15 15 15 15 15 15 15 14 14 14 14 14 14 14 14 14 13 13 13 13 13 12 12 12 12 12 12 12 11 11 10
18 18 17 17 17 17 16 16 16 16 15 15 15 15 15 15 15 15 14 14 14 14 13 13 13 13 13 13 13 13 13 13 12 12 12 12 12 12 12 12 12 11 11
17 17 17 16 16 16 16 15 15 15 15 15 14 14 14 14 14 14 14 14 14 13 13 13 13 13 13 13 13 13 12 12 12 12 12 11 11 12 12 12 12 12 12
16 16 16 15 15 15 15 15 14 14 14 14 14 14 14 14 13 13 13 13 13 12 12 12 12 12 12 12 12 12 12 12 12 11 11 11 11 12 12 12 12 12 11
15 15 15 15 14 14 14 14 14 13 13 13 13 13 13 13 13 13 13 12 12 12 11 11 11 11 11 12 12 12 12 12 12 11 11 11 11 11 12 12 12 12 11
14 14 14 14 14 13 13 13 13 13 13 13 13 13 13 13 13 12 12 12 11 11 11 11 11 11 11 11 11 11 11 11 11 11 11 11 11 11 11 12 11 11 11
13 13 13 13 13 13 13 13 13 13 13 13 13 12 12 12 12 12 11 11 11 11 10 10 10 10 10 10 10 11 11 11 11 11 11 11 11 11 11 11 11 11 11
13 13 13 13 13 13 13 13 13 12 12 12 12 12 12 12 12 11 11 11 10 10 10 10 10 10 10 10 10 10 11 11 11 11 11 11 11 11 11 11 11 11 11
12 12 12 12 12 13 13 13 13 13 12 12 12 12 12 11 11 11 11 10 10 10 10 10 10 10 10 10 10 10 10 10 10 10 10 10 10 10 10 10 10 10 10
12 12 12 12 12 12 13 13 13 13 12 12 12 12 12 11 11 10 10 10 10 10 9 9 9 9 9 9 9 9 9 10 10 10 10 9 10 10 10 10 10 10 10
12 12 12 12 12 12 12 12 12 12 12 12 11 11 11 10 10 10 10 10 9 9 9 9 9 9 9 9 9 9 9 9 9 9 9 9 9 9 9 9 9 9 9
12 12 12 12 12 12 12 12 12 11 11 11 11 10 10 10 10 9 9 9 9 8 8 8 8 8 8 8 8 8 8 8 8 8 8 8 8 9 9 9 9 9 9
11 12 12 12 12 12 12 11 11 11 11 10 10 10 10 9 9 9 9 8 8 8 8 7 7 7 7 7 7 7 7 7 7 7 8 8 8 8 8 8 8 8 9
11 11 12 12 11 11 11 11 11 10 10 10 9 9 9 9 8 8 8 7 7 7 7 7 7 7 7 7 7 7 7 7 7 7 7 7 7 7 7 8 8 8 8
11 11 11 11 11 11 11 10 10 10 9 9 9 8 8 8 7 7 7 7 6 6 6 6 6 6 6 6 6 6 6 6 6 6 7 7 7 7 7 7 7 7 8
10 11 11 11 10 10 10 10 9 9 9 8 8 8 7 7 7 6 6 6 6 6 6 6 6 6 6 6 6 6 6 6 6 6 6 6 6 7 7 7 7 7 7
10 10 10 10 10 9 9 9 8 8 8 7 7 7 6 6 6 6 5 5 5 5 5 5 5 5 5 5 5 5 6 6 6 6 6 6 6 7 7 7 7 7 7
Wind_Speed
11 10 9 9 8 7 6 7 6 5 6 6 6 6 5 5 5 4 4 3 4 4 4 3 3 3 3 3 3 3 3 3 4 5 4 3 3 4 4 6 10 12 13
11 10 9 9 9 8 8 7 7 7 7 7 6 6 6 6 6 5 6 4 4 4 5 4 4 4 4 4 3 4 4 4 4 6 5 5 6 5 5 5 8 11 11
13 12 11 10 10 9 8 8 8 8 7 7 7 7 6 6 6 6 6 5 5 5 5 5 5 5 5 4 4 5 4 6 4 5 6 5 5 6 5 5 7 6 12
13 13 12 11 11 10 9 9 9 9 8 8 8 7 7 7 6 7 7 7 6 6 6 6 6 6 6 6 6 6 6 5 6 6 6 6 5 6 4 4 5 5 6
13 13 12 11 10 10 9 9 9 9 11 9 8 8 8 8 8 8 7 8 7 7 7 7 7 8 8 7 7 5 5 5 5 6 6 6 5 4 4 3 5 5 5
12 12 11 11 11 11 10 9 9 9 9 9 9 8 9 9 10 10 7 5 5 6 7 7 7 8 11 14 14 12 10 8 7 7 7 7 7 6 5 5 5 5 6
9 9 10 11 11 10 11 10 9 9 8 8 8 8 8 7 8 9 9 6 6 6 7 7 9 10 7 7 11 15 15 17 15 11 10 10 10 8 7 7 6 7 7
9 8 8 9 10 9 9 9 9 8 8 7 7 7 7 8 10 10 10 7 7 8 9 9 9 9 11 9 8 9 9 11 13 13 13 14 13 10 9 8 8 9 9
8 8 8 8 8 8 8 8 7 6 7 7 7 7 7 7 9 10 9 6 7 9 10 10 10 10 13 13 10 10 10 10 13 17 18 18 19 17 11 7 7 8 10
4 4 4 5 5 6 6 5 5 4 5 6 7 7 7 7 9 12 11 6 7 8 8 9 13 14 14 12 9 10 11 11 11 12 10 12 14 15 17 13 11 11 11
4 3 2 3 4 4 4 3 3 4 5 6 6 6 6 7 9 12 12 7 7 7 8 7 6 7 9 10 10 10 13 12 9 10 10 10 10 10 12 12 12 13 12
6 6 5 4 2 2 3 2 2 2 4 4 4 5 4 5 5 8 12 12 10 7 8 8 7 7 8 10 11 14 16 13 10 10 11 10 10 9 10 11 12 13 13
7 6 5 4 3 2 2 2 2 3 3 3 3 4 4 3 2 4 7 10 12 9 8 11 12 14 14 12 16 18 14 10 10 11 12 11 10 10 9 8 9 11 12
6 5 4 3 2 1 1 1 1 2 2 2 3 3 3 2 1 0 1 4 7 8 8 10 12 15 14 15 15 13 11 12 12 12 11 10 9 8 8 8 8 7 9
4 3 2 2 1 0 0 1 1 0 0 2 2 2 3 3 1 1 2 3 4 4 5 7 9 9 9 10 10 10 10 10 11 12 12 11 10 9 9 8 7 7 8
3 2 1 1 0 1 2 2 3 3 5 5 5 4 3 4 5 6 7 8 9 7 5 8 10 11 11 11 10 10 9 9 9 9 9 10 10 10 9 8 7 8 9
3 3 2 2 1 2 2 3 3 4 7 8 9 10 10 9 9 10 11 10 11 7 6 10 11 11 11 10 10 10 9 9 8 8 8 9 9 9 9 9 9 9 9
3 2 3 3 3 3 3 4 4 3 3 4 7 12 12 13 13 13 11 7 8 7 8 10 10 9 9 9 9 9 8 8 7 7 8 9 9 9 10 10 9 10 10
4 3 2 3 5 5 4 4 4 4 4 5 5 4 7 9 11 13 9 6 9 10 9 9 9 9 9 9 9 8 8 8 9 8 8 9 9 9 10 9 9 12 11
4 5 5 5 6 6 5 5 5 5 5 5 6 5 4 4 6 8 6 6 8 9 9 9 9 9 9 9 9 8 9 9 9 9 9 9 8 9 10 10 9 10 9
6 5 5 6 6 6 5 5 6 6 7 7 6 5 5 7 8 9 8 7 7 8 8 9 9 10 10 9 9 10 11 9 9 9 9 9 9 8 8 9 9 10 10
8 8 7 7 5 5 5 6 7 7 8 9 7 7 7 8 9 8 8 8 8 8 8 9 10 10 9 9 9 9 9 10 9 9 9 9 8 8 8 8 9 9 9
9 9 8 7 6 6 6 7 7 8 8 8 9 9 8 8 9 9 9 9 8 8 8 9 10 10 9 9 9 9 9 9 9 8 9 9 9 8 8 9 11 11 11
10 10 10 8 7 7 7 7 7 8 8 8 8 9 9 8 9 9 9 9 9 10 9 9 10 12 14 11 9 9 7 7 8 8 10 10 10 10 9 10 10 11 11
10 10 10 9 9 8 7 7 8 8 8 8 8 9 9 9 10 10 9 9 11 11 13 12 10 11 13 15 13 10 7 8 8 8 9 9 11 11 11 11 11 11 11
11 11 10 9 8 7 7 8 8 9 8 8 8 9 9 10 10 10 10 9 10 11 12 12 12 14 15 13 12 10 8 8 8 8 8 9 10 10 11 10 12 11 11
Wind_Direction
176 185 174 177 181 181 184 174 164 159 152 162 168 174 182 183 182 196 243 209 209 225 244 230 225 256 287 303 295 278 271 276 285 296 303 311 294 269 266 264 272 267 254
181 181 179 180 181 184 186 177 170 171 170 175 180 188 199 195 190 199 229 231 221 226 236 241 245 249 234 256 279 286 282 272 263 277 286 283 275 262 247 242 263 273 274
184 185 184 184 185 191 186 177 175 176 183 186 188 198 210 210 199 204 218 235 236 237 238 238 241 249 253 249 257 267 278 284 281 277 280 274 268 262 251 253 259 264 273
184 186 186 188 189 190 189 184 184 185 191 196 195 204 211 218 215 211 214 223 230 237 241 242 242 241 243 242 253 249 255 267 272 272 270 270 266 264 253 249 266 262 271
182 187 187 187 189 190 191 191 190 193 200 199 201 205 212 218 221 215 218 225 222 232 240 242 246 244 239 238 254 258 271 271 275 278 279 281 277 284 282 278 278 279 272
184 189 187 187 191 193 192 193 195 198 205 199 204 209 216 226 215 206 208 238 239 239 244 245 251 244 236 232 237 242 243 251 260 268 277 277 282 287 290 290 288 288 284
187 189 186 188 193 196 198 195 197 200 204 207 209 214 223 221 202 198 206 223 248 253 253 252 259 262 251 237 234 236 242 243 239 245 258 264 271 277 286 288 281 278 276
186 191 190 191 195 194 199 196 195 199 202 206 211 220 226 226 206 206 210 225 245 253 254 252 252 259 263 259 260 254 242 240 235 234 240 247 251 253 254 260 264 270 266
189 191 192 191 193 192 196 198 194 197 203 208 214 218 221 225 207 208 207 232 246 253 255 257 254 254 252 248 250 255 259 260 258 249 231 233 239 246 248 258 262 266 271
171 177 183 175 178 184 186 190 192 194 212 217 221 221 222 226 213 210 208 234 252 260 261 259 257 255 255 249 247 253 258 259 266 274 262 248 246 248 242 237 245 253 261
109 113 122 145 157 172 169 175 189 204 216 221 229 229 230 231 216 209 206 222 247 262 269 271 272 271 262 257 248 252 256 262 269 268 267 260 248 242 239 230 226 233 245
84 83 78 78 103 161 146 156 176 228 236 236 242 250 250 241 226 218 213 221 244 264 273 281 289 306 300 280 267 260 260 262 266 265 263 261 258 252 243 234 225 222 228
76 83 84 92 89 68 124 175 200 223 238 244 250 258 263 261 233 212 218 235 248 256 272 283 293 294 292 280 263 259 259 258 255 256 257 257 255 255 254 247 236 228 229
66 70 74 76 84 73 109 172 216 227 237 256 268 264 271 287 324 47 270 267 264 262 272 285 285 276 271 265 267 262 250 245 246 251 253 255 255 255 255 252 247 241 244
64 69 75 66 22 37 145 252 223 162 165 244 279 298 300 295 288 262 272 291 298 305 310 293 287 283 275 269 265 260 253 246 243 247 253 256 257 259 257 252 250 252 256
43 34 30 90 308 261 233 242 232 218 200 211 227 241 260 240 247 257 260 264 270 277 286 281 281 280 279 279 278 274 267 259 254 252 253 257 259 259 260 257 251 249 251
14 356 338 331 316 295 289 276 270 244 228 235 240 243 244 254 261 264 267 275 279 267 265 272 274 275 276 277 277 276 275 272 267 264 261 258 259 261 262 260 256 252 250
333 348 317 322 329 311 297 291 285 280 279 270 243 238 243 249 257 264 271 292 287 268 266 272 278 281 284 286 287 288 288 289 283 278 273 269 265 263 262 260 259 257 256
323 325 335 326 305 297 291 290 298 305 303 299 299 274 239 249 260 266 266 265 277 285 290 294 296 298 295 292 292 289 288 287 287 284 279 275 273 272 268 264 263 262 258
296 284 280 286 291 296 295 300 308 310 305 303 305 314 317 299 292 287 272 263 275 287 294 298 302 303 303 298 293 290 289 287 285 281 279 277 274 272 273 271 268 267 261
311 298 261 271 287 299 305 306 305 304 305 307 310 315 318 304 295 294 297 298 297 301 305 308 309 307 304 304 303 301 298 296 295 290 287 283 280 279 278 276 274 271 268
308 306 300 296 301 303 310 307 305 306 305 307 309 305 295 296 301 303 308 310 312 311 311 308 304 302 301 301 301 298 297 296 294 292 288 287 286 283 281 280 279 277 271
295 298 301 304 307 309 303 302 304 302 303 307 309 309 310 309 311 311 312 313 312 311 309 305 303 301 302 301 299 296 295 294 295 297 298 297 293 287 282 280 278 278 274
306 307 307 308 308 306 306 305 305 305 308 310 312 311 310 309 309 311 313 313 312 308 305 303 302 303 304 304 301 301 304 311 311 304 300 295 291 284 280 276 276 277 277
308 310 309 309 311 312 313 313 311 311 312 313 313 313 312 312 310 309 311 312 313 312 312 311 306 307 308 308 307 310 320 319 313 309 302 293 288 285 282 280 276 275 275
310 311 312 313 317 323 323 322 321 320 317 316 316 316 314 312 312 313 314 313 313 312 309 306 306 311 313 312 314 319 311 305 304 300 293 288 285 282 283 280 279 276 275
Height
1515 1517 1520 1522 1525 1527 1529 1532 1533 1535 1536 1538 1539 1540 1542 1543 1544 1544 1545 1547 1547 1547 1548 1548 1548 1548 1548 1548 1549 1549 1548 1548 1547 1546 1546 1545 1544 1543 1542 1540 1539 1538 1537
1512 1515 1517 1520 1522 1524 1527 1529 1530 1532 1533 1535 1536 1538 1539 1541 1542 1542 1543 1544 1545 1545 1545 1546 1546 1546 1546 1545 1545 1545 1545 1545 1544 1542 1542 1541 1540 1539 1538 1536 1535 1534 1533
1509 1512 1514 1517 1519 1522 1524 1526 1527 1529 1531 1532 1533 1535 1536 1538 1539 1540 1541 1542 1542 1542 1543 1543 1543 1543 1542 1542 1542 1541 1541 1541 1540 1539 1538 1537 1536 1535 1534 1532 1531 1530 1529
1506 1508 1510 1513 1515 1518 1521 1522 1524 1526 1528 1529 1530 1532 1533 1535 1536 1537 1538 1538 1539 1539 1539 1539 1539 1539 1538 1538 1538 1537 1537 1536 1536 1535 1533 1533 1532 1531 1530 1528 1527 1526 1525
1502 1505 1507 1509 1512 1514 1516 1519 1521 1522 1524 1526 1527 1529 1530 1531 1532 1533 1534 1535 1535 1535 1535 1535 1535 1535 1534 1534 1534 1533 1533 1532 1531 1530 1529 1528 1527 1526 1525 1524 1522 1521 1520
1498 1501 1504 1506 1508 1510 1512 1514 1517 1518 1520 1522 1523 1525 1526 1528 1529 1530 1531 1531 1532 1531 1531 1531 1531 1530 1530 1529 1529 1528 1528 1527 1526 1525 1523 1523 1522 1521 1520 1519 1517 1516 1514
1494 1497 1500 1502 1504 1506 1509 1510 1512 1514 1516 1517 1519 1521 1522 1524 1525 1526 1526 1527 1527 1526 1526 1526 1525 1526 1525 1524 1523 1522 1522 1521 1520 1519 1517 1516 1515 1515 1514 1513 1511 1510 1507
1490 1493 1496 1498 1499 1502 1504 1506 1507 1509 1510 1512 1514 1516 1517 1519 1520 1521 1522 1522 1521 1521 1520 1520 1520 1519 1519 1519 1518 1517 1515 1514 1513 1512 1510 1509 1509 1508 1508 1507 1505 1503 1500
1486 1489 1492 1494 1496 1498 1499 1501 1503 1505 1505 1507 1509 1511 1512 1514 1515 1516 1517 1516 1515 1515 1515 1515 1514 1513 1513 1512 1511 1510 1508 1507 1507 1506 1504 1502 1501 1501 1501 1500 1498 1496 1493
1482 1485 1487 1490 1492 1494 1496 1498 1499 1501 1502 1502 1503 1506 1507 1508 1509 1510 1511 1510 1510 1509 1509 1509 1508 1507 1507 1505 1504 1502 1500 1499 1499 1498 1496 1495 1494 1493 1492 1492 1490 1489 1486
1479 1481 1483 1484 1488 1491 1492 1494 1496 1497 1498 1499 1500 1501 1502 1503 1503 1504 1504 1504 1504 1503 1502 1502 1502 1501 1499 1498 1497 1495 1493 1492 1490 1489 1487 1486 1485 1484 1483 1482 1481 1481 1479
1477 1479 1480 1482 1485 1487 1489 1490 1492 1493 1494 1495 1495 1496 1497 1498 1498 1498 1498 1498 1498 1497 1495 1495 1494 1493 1492 1490 1488 1487 1485 1484 1482 1479 1478 1477 1476 1475 1475 1474 1473 1472 1470
1477 1478 1480 1481 1482 1484 1486 1487 1489 1490 1491 1491 1491 1492 1493 1493 1493 1493 1492 1492 1491 1490 1488 1487 1486 1485 1483 1481 1480 1478 1477 1474 1472 1470 1468 1467 1467 1467 1467 1466 1465 1464 1462
1477 1478 1479 1481 1482 1483 1484 1485 1486 1487 1487 1488 1488 1488 1488 1489 1488 1487 1486 1486 1485 1483 1481 1479 1478 1476 1474 1472 1470 1468 1466 1465 1463 1461 1460 1459 1459 1459 1458 1458 1457 1455 1454
1477 1479 1480 1481 1481 1482 1482 1483 1483 1484 1484 1484 1484 1484 1484 1484 1483 1482 1481 1480 1478 1477 1474 1472 1470 1468 1465 1463 1461 1460 1458 1457 1455 1453 1452 1451 1450 1450 1449 1449 1448 1447 1445
1479 1480 1480 1481 1481 1481 1480 1480 1480 1481 1481 1481 1481 1481 1480 1480 1478 1477 1476 1474 1473 1471 1468 1465 1463 1461 1458 1456 1454 1452 1451 1449 1447 1446 1444 1443 1442 1441 1440 1439 1439 1438 1436
1480 1480 1480 1480 1480 1480 1479 1479 1479 1478 1477 1477 1477 1477 1476 1475 1474 1472 1470 1468 1467 1465 1462 1459 1456 1454 1452 1449 1447 1445 1443 1442 1440 1438 1436 1434 1433 1432 1431 1430 1429 1429 1427
1481 1480 1480 1480 1479 1479 1479 1478 1476 1475 1474 1474 1473 1472 1471 1470 1469 1467 1465 1463 1460 1458 1456 1453 1451 1448 1446 1443 1441 1438 1436 1434 1432 1430 1428 1427 1425 1424 1422 1421 1420 1420 1419
1481 1480 1479 1479 1479 1478 1477 1476 1474 1473 1472 1471 1470 1469 1467 1465 1463 1462 1460 1458 1455 1453 1451 1448 1445 1442 1439 1436 1433 1431 1429 1426 1424 1422 1420 1419 1417 1416 1414 1413 1412 1411 1410
1480 1479 1478 1478 1477 1476 1475 1474 1472 1471 1470 1468 1467 1465 1463 1461 1459 1457 1455 1453 1450 1448 1445 1442 1439 1436 1432 1429 1427 1424 1421 1419 1417 1415 1413 1411 1409 1408 1406 1405 1404 1403 1402
1479 1478 1477 1476 1475 1474 1472 1471 1469 1468 1466 1465 1463 1461 1459 1457 1455 1452 1450 1447 1445 1442 1438 1435 1432 1429 1426 1422 1419 1417 1414 1411 1409 1407 1405 1403 1401 1400 1398 1397 1396 1395 1394
1478 1476 1475 1474 1472 1471 1469 1468 1466 1465 1463 1461 1459 1457 1454 1452 1450 1447 1444 1441 1439 1436 1432 1429 1425 1422 1419 1416 1413 1409 1406 1404 1402 1399 1397 1395 1393 1392 1390 1389 1388 1387 1386
1476 1474 1472 1471 1469 1467 1465 1464 1462 1460 1458 1456 1454 1452 1449 1447 1444 1441 1438 1435 1432 1429 1425 1422 1418 1415 1412 1409 1406 1403 1400 1397 1394 1392 1390 1387 1386 1384 1383 1382 1380 1379 1378
1473 1471 1469 1467 1465 1463 1461 1460 1458 1456 1454 1451 1449 1446 1444 1441 1438 1435 1432 1429 1425 1422 1418 1415 1412 1408 1405 1402 1399 1396 1393 1390 1388 1385 1383 1381 1379 1377 1376 1374 1373 1372 1371
1470 1468 1465 1463 1461 1459 1457 1455 1453 1451 1449 1446 1444 1441 1438 1435 1432 1428 1425 1421 1418 1415 1411 1408 1405 1401 1398 1394 1392 1389 1386 1383 1380 1378 1375 1373 1371 1370 1368 1367 1366 1365 1364
1466 1464 1462 1459 1457 1455 1452 1450 1448 1446 1443 1441 1438 1435 1432 1429 1426 1422 1419 1415 1411 1407 1404 1400 1397 1394 1391 1387 1384 1381 1378 1376 1373 1371 1368 1366 1364 1363 1362 1360 1359 1358 1357